User: anonymous   Login
Location: Unspecified
(0.0000°N, 0.0000°E)
Time: 10:10:18
(UTC+00:00)
Language:

PAYLOAD C - Orbit

View from above orbital plane
View from above orbital plane
View from above satellite
View from above satellite

Ground track
Ground track

The orbit data is extracted from the following two-line orbital elements,

1 27057U 01058C   18113.91030396 +.00000032 +00000-0 +12007-3 0  9998
2 27057 082.5430 319.4327 0001834 011.6450 348.4624 12.61547015751564
Epoch (UTC): 23 April 2018 21:50:50
Eccentricity: 0.0001834
inclination: 82.5430°
perigee height: 1415 km
apogee height: 1418 km
right ascension of ascending node: 319.4327°
argument of perigee: 11.6450°
revolutions per day: 12.61547015
mean anomaly at epoch: 348.4624°
orbit number at epoch: 75156

The dashed part of the orbit path shows where the satellite is in the earth's shadow,  

DLR